Location: Miss�
(46.9484°N, 0.1922°W)
Time: 21:15:35
(UTC+00:00)

Cosmos 1666 - Pass Details

Date: 02 March 2021
Orbit: 497 x 518 km, 82.5° (Epoch: 14 April)

Event Time Altitude Azimuth Distance (km) Brightness Sun altitude
Rises 20:21:03 0° 210° (SSW) 2,574 6.4 -26.6°
Reaches altitude 10° 20:23:18 10° 220° (SW) 1,697 5.5 -26.9°
Maximum altitude 20:26:40 32° 286° (WNW) 873 4.3 -27.5°
Drops below altitude 10° 20:30:05 10° 351° (N) 1,715 5.7 -28.0°
Sets 20:32:23 0° 1° (N) 2,607 6.5 -28.4°
